Weather History for KIKW - April, 2013

Change the Weather History Date:

Wednesday, April 10, 2013

  Actual Average (KMBS) Record (KMBS)
Temperature  
Mean Temperature 38 °F 44 °F  
Max Temperature 39 °F 54 °F 82 °F (2011)
Min Temperature 36 °F 34 °F 19 °F (1997)
Degree Days  
Heating Degree Days 28    
Month to date heating degree days  
Since 1 July heating degree days  
Cooling Degree Days 0    
Month to date cooling degree days  
Year to date cooling degree days  
Moisture  
Dew Point 36 °F    
Average Humidity 91    
Maximum Humidity 97    
Minimum Humidity 77    
Precipitation  
Precipitation 0.06 in 0.09 in 0.50 in (2015)
Month to date precipitation 0.88  
Year to date precipitation 6.26  
Snow  
Snow 0.00 in - - ()
Month to date snowfall  
Since 1 July snowfall  
Snow Depth -    
Sea Level Pressure  
Sea Level Pressure 30.02 in    
Wind  
Wind Speed 8 mph (NE)    
Max Wind Speed 17 mph    
Max Gust Speed 25 mph    
Visibility 9 miles    
Events Rain    
T = Trace of Precipitation, MM = Missing Value Source: NWS Daily Summary

Daily Weather History Graph

Daily Weather History Graph

Search for Another Location

Airport or City:

Trip Planner

Search our weather history database for the weather conditions in past years. The results will help you decide how hot, cold, wet, or windy it might be!

Date:

Astronomy

Apr. 10, 2013 Rise Set
Actual Time 7:02 AM EDT 8:14 PM EDT
Civil Twilight 6:32 AM EDT 8:44 PM EDT
Nautical Twilight 5:57 AM EDT 9:20 PM EDT
Astronomical Twilight 5:20 AM EDT 9:57 PM EDT
Moon 6:57 AM EDT (4/10) 8:51 PM EDT (4/10)
Length of Visible Light 14h 11m
Length of Day
13h 12m
New Moon, 0% of the Moon is Illuminated
Apr 10
New Moon
Apr 18
First Quarter
Apr 25
Full
May 2
Last Quarter
May 9
New

Hourly Weather History & Observations

Time (EDT) Temp. Windchill Dew Point Humidity Pressure Visibility Wind Dir Wind Speed Gust Speed Precip Events Conditions
12:14 AM 38.7 °F - 37.8 °F 97% 30.04 in 10.0 mi Calm Calm - N/A   Overcast
12:34 AM 38.7 °F 35.2 °F 37.6 °F 96% 30.04 in 10.0 mi NNE 4.6 mph - N/A   Overcast
12:54 AM 38.7 °F 33.6 °F 37.8 °F 97% 30.04 in 10.0 mi NNE 6.9 mph - N/A   Overcast
1:13 AM 38.7 °F 33.6 °F 37.6 °F 96% 30.04 in 10.0 mi NNE 6.9 mph - N/A   Overcast
1:34 AM 38.7 °F 35.2 °F 37.4 °F 95% 30.05 in 10.0 mi NE 4.6 mph - N/A   Overcast
1:51 AM 38.5 °F 34.1 °F 37.4 °F 96% 30.04 in 10.0 mi NNE 5.8 mph - N/A   Overcast
2:14 AM 38.5 °F 33.4 °F 37.4 °F 96% 30.03 in 10.0 mi ENE 6.9 mph - N/A   Light Drizzle
2:33 AM 38.5 °F 35.0 °F 37.4 °F 96% 30.02 in 7.0 mi ENE 4.6 mph - N/A Rain Rain
2:54 AM 38.5 °F 35.0 °F 37.4 °F 96% 30.02 in 10.0 mi NNE 4.6 mph - N/A   Light Drizzle
3:14 AM 38.5 °F 32.7 °F 37.4 °F 96% 30.00 in 10.0 mi NE 8.1 mph - N/A   Overcast
3:33 AM 38.5 °F 34.1 °F 37.4 °F 96% 30.00 in 10.0 mi NE 5.8 mph - N/A   Overcast
3:54 AM 38.5 °F 33.4 °F 37.4 °F 96% 29.99 in 10.0 mi ENE 6.9 mph - N/A   Overcast
4:11 AM 38.3 °F 31.4 °F 37.0 °F 95% 29.97 in 10.0 mi NE 10.4 mph - N/A   Overcast
4:33 AM 38.1 °F 33.7 °F 36.9 °F 95% 29.99 in 10.0 mi North 5.8 mph - N/A   Light Drizzle
8:02 AM 38.5 °F 31.1 °F 37.4 °F 96% 30.01 in 5.0 mi ENE 11.5 mph 23.0 mph N/A Rain Light Rain
8:14 AM 38.5 °F 30.3 °F 37.4 °F 96% 30.00 in 10.0 mi ENE 13.8 mph 21.9 mph N/A Rain Light Rain
8:31 AM 38.5 °F 29.2 °F 37.4 °F 96% 30.00 in 5.0 mi ENE 17.3 mph 24.2 mph N/A Rain Light Rain
8:54 AM 37.8 °F 29.4 °F 36.7 °F 96% 30.00 in 10.0 mi ENE 13.8 mph 18.4 mph N/A   Overcast
9:14 AM 37.9 °F 30.9 °F 36.9 °F 96% 29.99 in 10.0 mi NE 10.4 mph 21.9 mph N/A   Overcast
9:33 AM 38.1 °F 30.2 °F 37.0 °F 96% 29.97 in 7.0 mi ENE 12.7 mph 18.4 mph N/A   Light Drizzle
9:54 AM 38.3 °F 29.7 °F 37.2 °F 96% 30.11 in 4.0 mi NNW 15.0 mph 24.2 mph N/A   Drizzle
10:14 AM 37.6 °F 31.6 °F 36.7 °F 97% 30.00 in 3.0 mi ENE 8.1 mph - 0.02 in Rain Light Rain
10:33 AM 37.6 °F 30.0 °F 36.7 °F 97% 29.98 in 7.0 mi NE 11.5 mph 17.3 mph 0.02 in   Overcast
10:54 AM 37.6 °F 29.6 °F 36.5 °F 96% 30.00 in 10.0 mi NE 12.7 mph 24.2 mph 0.02 in   Light Drizzle
11:14 AM 37.6 °F 28.8 °F 36.5 °F 96% 30.01 in 10.0 mi NE 15.0 mph 21.9 mph N/A   Overcast
11:34 AM 37.6 °F 31.0 °F 36.5 °F 96% 30.05 in 10.0 mi NNE 9.2 mph - N/A   Overcast
11:54 AM 37.4 °F 28.5 °F 36.0 °F 95% 30.01 in 3.0 mi ENE 15.0 mph 18.4 mph 0.03 in Rain Rain
12:13 PM 36.9 °F 28.2 °F 36.0 °F 97% 29.97 in 7.0 mi NE 13.8 mph 23.0 mph 0.01 in Rain Light Rain
12:34 PM 37.4 °F 27.8 °F 36.5 °F 97% 29.93 in 10.0 mi NE 17.3 mph 23.0 mph 0.01 in Rain Light Rain
1:13 PM 37.8 °F 32.5 °F 36.7 °F 96% 30.00 in 10.0 mi NE 6.9 mph 17.3 mph N/A Rain Light Rain
1:34 PM 37.6 °F 31.6 °F 36.5 °F 96% 30.02 in 10.0 mi NE 8.1 mph 17.3 mph N/A Rain Light Rain
1:54 PM 37.6 °F 30.5 °F 36.5 °F 96% 30.00 in 10.0 mi NNE 10.4 mph 16.1 mph N/A   Overcast
2:13 PM 37.9 °F 34.4 °F 36.9 °F 96% 30.02 in 10.0 mi NNE 4.6 mph - N/A   Overcast
2:34 PM 38.5 °F 33.4 °F 37.4 °F 96% 30.03 in 10.0 mi North 6.9 mph - N/A   Overcast
2:54 PM 38.5 °F 31.6 °F 37.4 °F 96% 30.03 in 10.0 mi NNE 10.4 mph 16.1 mph N/A   Overcast
3:13 PM 39.2 °F 31.6 °F 37.6 °F 94% 30.01 in 7.0 mi North 12.7 mph - N/A   Overcast
3:34 PM 38.8 °F 30.8 °F 37.0 °F 93% 30.00 in 10.0 mi NNE 13.8 mph 25.3 mph N/A   Overcast
3:54 PM 38.7 °F 32.4 °F 36.7 °F 93% 30.00 in 10.0 mi NE 9.2 mph - N/A   Overcast
4:14 PM 39.2 °F 32.5 °F 36.9 °F 91% 30.00 in 10.0 mi NNE 10.4 mph 16.1 mph N/A   Overcast
4:34 PM 39.2 °F 34.2 °F 36.7 °F 91% 30.01 in 10.0 mi NNE 6.9 mph - N/A   Overcast
4:53 PM 39.4 °F 32.3 °F 36.7 °F 90% 30.00 in 10.0 mi NE 11.5 mph - N/A   Overcast
5:14 PM 39.6 °F 33.5 °F 36.9 °F 90% 30.03 in 10.0 mi NE 9.2 mph - N/A   Overcast
5:33 PM 39.9 °F 35.1 °F 37.0 °F 89% 30.02 in 10.0 mi NE 6.9 mph - N/A   Overcast
5:54 PM 39.4 °F 34.5 °F 36.5 °F 89% 30.07 in 10.0 mi ENE 6.9 mph - N/A   Overcast
6:01 PM 39.4 °F 34.5 °F 36.3 °F 89% 30.07 in 10.0 mi NNE 6.9 mph - N/A   Overcast
6:34 PM 38.5 °F 31.6 °F 35.6 °F 89% 30.06 in 10.0 mi NE 10.4 mph 16.1 mph N/A   Overcast
6:54 PM 38.5 °F 31.6 °F 35.6 °F 89% 30.03 in 10.0 mi NE 10.4 mph 18.4 mph N/A   Overcast
7:14 PM 38.5 °F 30.3 °F 35.1 °F 87% 30.00 in 10.0 mi NE 13.8 mph 23.0 mph N/A   Overcast
7:34 PM 37.9 °F 30.0 °F 33.8 °F 85% 30.00 in 10.0 mi NNE 12.7 mph 24.2 mph N/A   Overcast
7:54 PM 38.1 °F 29.5 °F 32.2 °F 79% 30.03 in 10.0 mi NE 15.0 mph 21.9 mph N/A   Overcast
8:14 PM 37.6 °F 29.6 °F 31.1 °F 77% 30.00 in 10.0 mi NE 12.7 mph 21.9 mph N/A   Overcast
8:34 PM 37.4 °F 32.8 °F 31.1 °F 78% 30.03 in 10.0 mi NE 5.8 mph 17.3 mph N/A   Overcast
8:54 PM 37.6 °F 32.3 °F 31.6 °F 79% 30.04 in 10.0 mi NE 6.9 mph - N/A   Overcast
9:14 PM 37.6 °F 30.0 °F 31.3 °F 78% 30.00 in 10.0 mi ENE 11.5 mph 18.4 mph N/A   Overcast
9:34 PM 38.1 °F 31.2 °F 31.5 °F 77% 30.03 in 10.0 mi NE 10.4 mph 18.4 mph N/A   Overcast
9:54 PM 38.1 °F 32.3 °F 31.8 °F 78% 30.05 in 10.0 mi NNE 8.1 mph - N/A   Light Drizzle
10:14 PM 37.4 °F 32.1 °F 32.0 °F 81% 30.03 in 10.0 mi NE 6.9 mph - N/A Rain Light Rain
10:54 PM 37.0 °F 30.4 °F 32.0 °F 82% 30.02 in 10.0 mi ENE 9.2 mph - N/A   Scattered Clouds
11:14 PM 37.4 °F 30.8 °F 31.6 °F 80% 30.03 in 10.0 mi ENE 9.2 mph - N/A   Scattered Clouds
11:34 PM 37.6 °F 31.0 °F 31.8 °F 80% 30.04 in 10.0 mi ENE 9.2 mph - N/A   Scattered Clouds
11:54 PM 37.8 °F 30.2 °F 31.8 °F 79% 30.05 in 10.0 mi NE 11.5 mph - N/A   Mostly Cloudy